Details From TNCM - St Maarten - Princess Juliana Intl
To MKJS - Montego Bay Sangster Intl
Flight Number -
Tags Generated
Created
Modified
Stats Distance 845 nm / 1,565 km
Max Altitude 0 ft / 0 m
Waypoints 5
Social Downloads 0
Likes 0
Share VATSIM

Download

Looking for another format? Having issues loading an existing format? Contact us
Advertisement - Login to hide

Notes

Generated

Route

TNCM MELLA MAROT ALMUS MKJS

ID Type Via Altitude Latitude Longitude Leg Dist Tot Dist Heading (true) Name
O TNCM APT - 0 ft / 0 m 18.03937˚ -63.11961˚ - 0 nm - -
MELLA FIX - 0 ft / 0 m 18.20000˚ -68.00000˚ 278 nm 278 nm 273° / 271° -
MAROT FIX - 0 ft / 0 m 18.49517˚ -72.91222˚ 280 nm 559 nm 274° / 273° -
ALMUS FIX - 0 ft / 0 m 18.47833˚ -77.57000˚ 265 nm 824 nm 271° / 269° -
O MKJS APT - 0 ft / 0 m 18.49873˚ -77.92482˚ 20 nm 844 nm 274° / 273° -

Altitude Profile

Advertisement - Login to hide

Weather


0- 5 10 15 20 25 30 35+ Temperature / ° C

Clouds and Precipitation
Forecast for 2017-12-18 00:00 UTC. Updated 23 minutes ago

Ground ~20,000 ft ~40,000 ft Winds

TNCM

Details ICAO TNCM (SXM)
Name St Maarten - Princess Juliana Intl
Region Caribbean Netherlands, Aruba, Curaçao, Sint Maarten
Timezone Unknown (UTC+0.0)
Stats Elevation 12 ft / 4 m (AMSL)
Location 18.040889° -63.108974°
Runways 1
Magnetic Variation 14.325° W

METAR

TNCM 172300Z 05011KT 010V080 9999 VCSH SCT018 SCT040 27/22 Q1016 A3003 NOSIG

Decode

TAF

TAF AMD TNCM 172009Z 1720/1818 06015G22KT P6SM VCSH SCT018 SCT035 TEMPO 1720/1722 -SHRA BKN018 BKN035 FM172300 07011KT P6SM -RA SCT018 SCT050 FM181430 08014KT P6SM SCT022 SCT060

Decode

Departure Runways

ID Width Length Bearing (true) Bearing (mag) Surface Threshold Offset Overrun Length
10 148 ft / 45 m 7,464 ft / 2,275 m 81.43° 95.76° Asphalt 0 ft / 0 m 151 ft / 46 m
28 148 ft / 45 m 7,464 ft / 2,275 m 261.44° 275.77° Asphalt 397 ft / 121 m 0 ft / 0 m

MKJS

Details ICAO MKJS (MBJ)
Name Sangster Intl
Region Jamaica
Timezone America/Jamaica (UTC-5.0)
Stats Elevation 6 ft / 2 m (AMSL)
Location 18.503549° -77.913698°
Runways 1
Magnetic Variation 6.957° W

METAR

MKJS 172300Z 11008KT 9999 FEW024 28/22 Q1016

Decode

TAF

TAF MKJS 171715Z 1718/1818 07015KT 9999 FEW024 BECMG 1802/1804 VRB03KT BECMG 1814/1816 07015KT

Decode

Destination Runways

ID Width Length Bearing (true) Bearing (mag) Surface Threshold Offset Overrun Length
07 161 ft / 49 m 8,495 ft / 2,589 m 65.37° 72.33° Asphalt 220 ft / 67 m 312 ft / 95 m
25 161 ft / 49 m 8,495 ft / 2,589 m 245.37° 252.33° Asphalt 577 ft / 176 m 200 ft / 61 m

Approach Navaids

Runway Type Ident Frequency Range Bearing (true) Bearing (mag) Slope Elevation
07 Localiser ISIA 109.50 MHz 18 nm / 33 km 65.41° 72.36° - 4 ft / 1 m (AMSL)
07 Glidescope ISIA 109.50 MHz 10 nm / 19 km 65.37° 72.33° 3.00° 4 ft / 1 m (AMSL)

Popular Alternatives